Hourly Data Report for June 12, 2003

TORONTO CITY
ONTARIO

43°40'00.000" N
79°24'00.000" W
112.50 m
6158355
71508
XTO

Download Data

Hourly Data (June 2003)
Hourly Data Report for June 12, 2003
TIME
LST
Temp Definition
°C
Dew Point Definition
°C
Rel Hum Definition
%
Precip. Amount Definition
mm

Wind Dir Definition
10's deg

Wind Spd Definition
km/h
Visibility Definition
km
Stn Press Definition
kPa
Hmdx Definition


Wind Chill Definition


Weather Definition


00:00 16.9 14.2 84   LegendMM LegendMM LegendMM 99.96     LegendNANA
01:00 16.9 13.6 81   LegendMM LegendMM LegendMM 99.96     LegendNANA
02:00 16.8 12.8 77   LegendMM LegendMM LegendMM 100.00     LegendNANA
03:00 16.4 12.4 77   LegendMM LegendMM LegendMM 100.00     LegendNANA
04:00 16.1 12.1 77   LegendMM LegendMM LegendMM 100.02     LegendNANA
05:00 16.1 11.9 76   LegendMM LegendMM LegendMM 100.04     LegendNANA
06:00 16.5 11.7 73   LegendMM LegendMM LegendMM 100.14     LegendNANA
07:00 16.9 11.6 71   LegendMM LegendMM LegendMM 100.16     LegendNANA
08:00 17.4 11.2 67   LegendMM LegendMM LegendMM 100.17     LegendNANA
09:00 17.5 11.3 67   LegendMM LegendMM LegendMM 100.19     LegendNANA
10:00 16.6 10.7 68   LegendMM LegendMM LegendMM 100.19     LegendNANA
11:00 15.5 11.5 77   LegendMM LegendMM LegendMM 100.17     LegendNANA
12:00 14.7 12.0 84   LegendMM LegendMM LegendMM 100.16     LegendNANA
13:00 14.5 12.4 87   LegendMM LegendMM LegendMM 100.10     LegendNANA
14:00 14.8 12.1 84   LegendMM LegendMM LegendMM 100.07     LegendNANA
15:00 14.1 11.8 86   LegendMM LegendMM LegendMM 100.04     LegendNANA
16:00 14.4 12.8 90   LegendMM LegendMM LegendMM 99.97     LegendNANA
17:00 14.3 12.5 89   LegendMM LegendMM LegendMM 99.91     LegendNANA
18:00 14.8 13.5 92   LegendMM LegendMM LegendMM 99.84     LegendNANA
19:00 14.9 12.8 87   LegendMM LegendMM LegendMM 99.81     LegendNANA
20:00 15.4 12.9 85   LegendMM LegendMM LegendMM 99.75     LegendNANA
21:00 15.9 13.8 87   LegendMM LegendMM LegendMM 99.79     LegendNANA
22:00 15.9 13.9 88   LegendMM LegendMM LegendMM 99.73     LegendNANA
23:00 16.5 13.4 82   LegendMM LegendMM LegendMM 99.66     LegendNANA

Notes on Data Quality.

Legend

  • E = Estimated
  • M = Missing
  • NA = Not Available*
  • [empty] = Indicates an unobserved value
Date modified: